Vertical_Velocity
1 3 -6 2 1 3 0 13 -4 -1 3 -8 -1 5 2 -1 8 6 10 5 -0 4 3 0 1 4 3 2 3 2 1 1 1 0 1 1 1 1 1 0 0 0 -1 -1
1 5 7 -1 2 -3 2 2 -1 3 -3 2 -0 6 4 7 10 13 5 1 -0 1 -0 1 3 2 1 1 1 1 1 1 1 0 0 1 1 1 -0 -1 -1 -0 1 -1
10 5 6 -1 -2 -2 4 -1 -0 -4 -5 -2 -6 -4 -2 16 -3 -3 4 2 1 -1 -2 1 2 -1 -1 -0 1 2 1 1 0 0 0 1 0 -1 -0 -1 -0 -0 -1 1
6 2 6 25 12 16 -3 -0 -2 -1 5 7 3 0 -1 5 -3 7 2 2 3 1 1 2 2 1 1 2 1 1 1 0 0 0 0 -1 -0 -0 -0 0 -0 -2 -2 -1
10 3 -1 -1 -1 18 1 2 3 -7 -4 4 0 -4 3 4 3 -1 1 1 0 0 3 3 2 2 0 1 1 2 1 1 0 -1 -0 1 1 1 -0 -1 -1 -1 -0 0
9 2 1 1 -2 -5 -1 29 29 3 3 -4 5 3 2 3 3 2 1 1 1 2 1 1 1 1 1 1 1 1 0 -0 -0 -0 1 1 -0 -1 -1 -1 -1 2 -3 -4
1 -1 -1 -1 -4 -3 -4 -2 -1 -2 -1 7 5 15 -1 -1 -1 -1 -0 1 1 1 1 2 -0 0 1 1 0 -0 0 -1 -1 0 -0 -0 -0 -0 -0 0 -1 -5 -0 -2
1 1 -1 -1 1 1 1 -2 -5 -1 1 -1 4 9 -1 -1 -0 2 3 2 1 2 2 2 2 1 1 1 -0 -0 0 -0 -1 -1 -0 -1 -2 -2 -0 -0 -2 -2 1 1
0 -0 -0 -2 1 0 1 3 2 -0 -1 -2 -1 0 0 -0 -0 -1 2 2 2 2 3 2 1 0 -1 0 -0 0 -0 -0 -0 0 1 0 -0 -1 -2 -1 -0 -1 1 2
2 0 1 -1 -1 -1 3 2 0 1 2 1 -0 0 2 2 1 -1 1 2 2 0 -0 -0 0 1 1 -0 -0 -1 -1 -0 1 1 -0 0 0 -1 -2 -1 -3 -2 -0 -0
0 1 0 -0 0 3 2 2 2 1 1 1 1 1 2 2 2 0 0 -0 0 1 1 1 1 0 -0 -1 -1 -0 0 -0 -1 -0 1 -1 -1 -0 -1 -5 -1 3 1 2
1 0 2 1 -1 3 2 2 2 1 1 3 3 0 -0 -1 -0 0 1 2 2 1 1 0 -0 -0 -1 -0 0 -1 -1 -1 -0 -1 -1 0 1 -4 -3 0 -3 -3 -2 -6
-3 -1 -1 -0 -0 -0 2 2 2 0 2 0 1 2 2 -0 1 2 1 0 1 0 -0 -1 -1 -0 -1 -1 -1 -0 0 -1 -0 -0 -0 -0 0 2 6 -9 -10 -5 -5 -5
-3 -3 -3 -0 1 1 -0 3 3 1 1 0 0 2 -0 -0 1 0 1 1 0 -0 -0 0 0 -0 -1 -1 -0 -1 -1 1 -0 -1 0 1 -1 -1 -2 0 9 14 2 -1
-1 0 0 -1 -1 0 1 0 1 2 1 1 1 0 1 0 1 1 1 1 2 1 0 -0 -1 -1 -0 -0 -0 -0 0 -1 -0 0 0 -0 -1 -1 1 1 -3 -4 -0 1
3 3 2 0 -1 0 1 1 0 5 2 2 1 1 1 1 1 0 -0 -1 0 1 -0 -0 -0 -0 -1 -0 -0 -0 1 1 -0 -0 -0 -1 -1 1 1 -2 -3 -3 -4 -3
1 2 1 1 -1 -1 -1 3 1 1 0 1 3 1 1 0 1 1 1 1 -1 -1 -0 0 -0 -0 -0 0 -0 0 -1 -1 1 0 -1 -2 1 0 -2 -4 -2 -1 -1 -5
0 -1 0 6 1 3 2 3 1 1 1 2 2 -1 -2 -0 -0 -1 -1 -1 -1 -1 -0 -1 -0 -0 -0 0 -0 -1 -1 0 -0 -2 -2 0 -1 -2 -2 -2 -3 -0 1 -2
-2 0 0 1 1 1 -0 -0 -0 -1 0 0 1 -0 -0 -0 -1 -2 -1 -1 -0 -0 -0 0 0 -0 -1 -0 -2 -1 1 -0 -1 -0 1 -1 -4 -4 -3 -3 -0 -1 -2 -2
-1 0 1 2 1 1 1 2 1 1 -0 -1 -1 -0 0 -1 -2 -1 -0 1 -0 -0 0 0 -1 -0 0 -2 -0 0 -1 -2 -1 -1 -0 -1 -1 -1 -3 -3 -2 -2 -2 -2
-1 0 2 1 1 0 1 2 1 1 -1 -1 -1 -0 -1 -2 -0 1 1 -0 -0 1 -0 -1 -1 0 -0 1 -0 -2 -2 -0 0 -0 -2 -2 -0 -1 -1 -1 -2 -2 -1 -0
-0 0 1 1 1 0 0 -1 -0 -1 -1 -2 -1 0 1 1 1 0 -0 -1 -0 -0 -0 -0 -0 0 -0 -1 -2 -1 -2 -1 -2 -3 -2 -2 -0 0 -2 -2 -1 -1 -2 -1
2 2 1 1 1 1 2 2 2 3 2 2 1 0 0 0 0 0 -0 -1 -1 -0 0 0 0 0 -2 -1 -2 -2 -1 -2 -2 -2 -1 0 -1 -2 -3 -2 -0 -1 -1 -1
-2 -1 1 1 1 1 1 1 1 0 -0 0 0 1 1 0 -1 -1 -1 -1 -0 0 0 -0 -1 -2 -1 -2 -1 -2 -2 -1 0 0 -0 -3 -2 -3 -3 -2 -1 -4 -1 -0
1 1 0 0 1 1 1 1 0 -0 0 1 0 0 0 -1 -1 -1 -0 0 0 -1 -1 -1 -1 -1 -1 -2 -3 -1 -1 -1 1 1 -3 0 0 -1 -3 -3 -1 -1 -0 -0
0 0 1 0 0 0 0 0 1 1 0 0 0 -0 -0 -0 -1 -0 0 -0 -0 -0 -1 -1 -2 -2 -3 -2 -1 -2 -2 -0 0 -3 -2 -2 -1 -1 -3 -1 -2 -1 -0 0
-1 0 1 1 1 1 0 0 1 1 -0 -0 0 0 -1 -0 1 1 1 0 -1 -1 -1 -1 -1 -2 -2 -2 -3 -3 -1 -1 -0 2 -2 -0 -0 1 -1 -0 -1 -1 1 1
Height
5581 5581 5578 5572 5567 5563 5559 5559 5559 5560 5561 5561 5561 5565 5573 5579 5588 5597 5606 5615 5623 5630 5636 5642 5648 5654 5658 5660 5663 5665 5666 5667 5667 5666 5665 5663 5660 5657 5653 5649 5644 5639 5633 5626
5580 5575 5573 5570 5568 5564 5566 5563 5561 5561 5564 5566 5569 5572 5578 5584 5593 5601 5608 5615 5621 5628 5634 5640 5645 5649 5652 5655 5658 5660 5661 5661 5660 5658 5657 5654 5651 5648 5644 5639 5634 5628 5622 5616
5577 5575 5572 5572 5572 5572 5571 5570 5569 5568 5569 5573 5576 5580 5582 5586 5596 5603 5609 5615 5621 5626 5631 5637 5641 5644 5648 5651 5653 5654 5654 5654 5652 5650 5648 5646 5642 5639 5634 5629 5623 5618 5611 5604
5576 5573 5573 5573 5573 5570 5574 5575 5574 5574 5576 5578 5578 5582 5587 5593 5599 5605 5611 5616 5621 5626 5630 5635 5639 5641 5644 5646 5647 5648 5647 5646 5644 5642 5640 5637 5634 5629 5624 5618 5613 5607 5599 5592
5575 5575 5577 5576 5577 5574 5577 5578 5578 5580 5581 5582 5585 5589 5592 5598 5603 5608 5612 5616 5621 5625 5630 5633 5636 5638 5639 5640 5641 5640 5639 5638 5636 5634 5632 5628 5624 5619 5614 5608 5602 5595 5588 5580
5575 5576 5577 5578 5579 5580 5580 5579 5581 5583 5585 5587 5592 5595 5599 5602 5605 5609 5613 5617 5621 5625 5628 5630 5632 5632 5633 5634 5634 5633 5632 5631 5628 5626 5623 5619 5614 5609 5604 5598 5591 5584 5575 5567
5576 5577 5579 5579 5581 5583 5585 5588 5586 5589 5590 5592 5596 5598 5601 5603 5606 5610 5614 5618 5620 5622 5624 5626 5626 5627 5628 5628 5628 5627 5625 5623 5620 5617 5613 5609 5605 5599 5594 5587 5580 5572 5565 5555
5577 5578 5580 5581 5581 5584 5586 5586 5588 5590 5592 5593 5595 5597 5600 5603 5606 5610 5613 5615 5617 5619 5620 5621 5621 5622 5622 5622 5621 5620 5617 5615 5612 5608 5604 5600 5595 5589 5583 5576 5569 5561 5553 5543
5577 5579 5579 5580 5581 5583 5584 5586 5587 5589 5591 5593 5595 5596 5599 5602 5605 5607 5609 5611 5613 5614 5615 5616 5616 5617 5617 5616 5614 5612 5610 5607 5604 5600 5595 5590 5584 5578 5572 5565 5558 5550 5541 5531
5576 5577 5578 5579 5580 5582 5583 5584 5586 5588 5589 5591 5593 5595 5597 5600 5602 5604 5606 5608 5609 5611 5611 5612 5612 5611 5611 5609 5608 5605 5603 5599 5595 5590 5586 5580 5574 5568 5561 5554 5546 5538 5528 5519
5574 5577 5577 5578 5579 5580 5581 5582 5584 5585 5587 5589 5591 5593 5595 5597 5600 5602 5604 5605 5606 5607 5607 5607 5607 5606 5605 5603 5601 5598 5594 5590 5586 5581 5576 5570 5564 5557 5550 5542 5534 5526 5516 5505
5572 5574 5575 5577 5577 5579 5580 5582 5583 5584 5586 5587 5589 5592 5594 5596 5598 5599 5600 5602 5603 5603 5603 5602 5602 5600 5598 5595 5592 5589 5585 5581 5577 5572 5566 5560 5553 5546 5539 5531 5521 5511 5500 5487
5571 5572 5574 5575 5576 5577 5579 5580 5582 5584 5585 5587 5589 5590 5593 5594 5595 5597 5598 5599 5599 5599 5598 5597 5595 5593 5590 5587 5584 5580 5577 5573 5567 5562 5556 5550 5544 5538 5530 5518 5507 5497 5485 5471
5567 5569 5571 5572 5573 5575 5577 5579 5581 5582 5584 5585 5586 5588 5590 5592 5594 5595 5595 5595 5595 5594 5592 5590 5588 5585 5582 5579 5576 5572 5568 5563 5558 5553 5547 5541 5534 5527 5519 5510 5499 5486 5470 5457
5564 5566 5568 5569 5570 5572 5574 5576 5578 5580 5581 5583 5585 5587 5588 5590 5591 5591 5591 5590 5589 5587 5585 5583 5581 5578 5574 5571 5567 5563 5559 5554 5549 5543 5538 5531 5524 5516 5506 5495 5483 5470 5458 5442
5562 5563 5564 5566 5567 5570 5572 5574 5575 5577 5578 5580 5582 5584 5585 5586 5586 5586 5585 5584 5582 5580 5578 5575 5573 5569 5566 5562 5558 5554 5550 5544 5539 5534 5528 5521 5513 5504 5494 5482 5469 5456 5441 5427
5559 5560 5561 5563 5565 5567 5569 5571 5572 5574 5576 5578 5579 5581 5581 5581 5581 5580 5579 5577 5575 5573 5570 5567 5564 5561 5558 5554 5550 5545 5540 5536 5531 5525 5518 5511 5502 5491 5480 5468 5455 5441 5425 5407
5554 5556 5558 5560 5562 5563 5565 5567 5569 5572 5574 5574 5575 5575 5575 5575 5574 5573 5572 5570 5567 5565 5563 5560 5556 5553 5549 5545 5541 5537 5532 5527 5521 5515 5508 5499 5489 5478 5467 5454 5440 5425 5409 5393
5550 5552 5554 5556 5558 5559 5561 5563 5565 5566 5568 5568 5568 5568 5568 5568 5567 5565 5564 5562 5560 5557 5555 5551 5548 5545 5541 5537 5533 5528 5523 5518 5512 5505 5496 5486 5476 5465 5453 5440 5425 5409 5395 5383
5546 5549 5551 5552 5554 5555 5557 5559 5560 5562 5562 5562 5563 5562 5561 5560 5559 5558 5556 5554 5552 5549 5546 5543 5540 5537 5533 5528 5524 5519 5514 5508 5501 5493 5484 5474 5463 5451 5438 5424 5409 5395 5383 5373
5543 5545 5547 5549 5551 5552 5554 5555 5556 5556 5555 5555 5555 5554 5553 5552 5551 5550 5548 5546 5544 5541 5539 5536 5532 5529 5524 5520 5515 5511 5505 5498 5490 5481 5471 5460 5449 5437 5423 5408 5394 5382 5373 5364
5539 5541 5543 5544 5546 5547 5547 5548 5548 5548 5548 5547 5547 5546 5546 5545 5543 5542 5540 5539 5537 5534 5531 5528 5524 5520 5516 5512 5507 5501 5494 5486 5478 5468 5458 5447 5435 5422 5408 5393 5382 5372 5364 5357
5535 5536 5537 5538 5539 5540 5541 5541 5541 5541 5541 5541 5541 5540 5539 5537 5536 5535 5534 5532 5530 5527 5523 5520 5516 5512 5508 5503 5497 5490 5483 5474 5465 5454 5444 5432 5419 5406 5392 5381 5372 5364 5357 5353
5531 5532 5533 5533 5534 5534 5535 5535 5535 5535 5535 5534 5533 5533 5532 5531 5530 5528 5527 5524 5522 5519 5516 5512 5508 5504 5499 5493 5487 5479 5471 5462 5451 5440 5428 5417 5404 5390 5379 5370 5362 5356 5352 5350
5525 5526 5526 5527 5527 5528 5528 5528 5528 5528 5528 5527 5527 5526 5525 5524 5523 5521 5519 5517 5514 5511 5508 5504 5500 5495 5489 5483 5475 5467 5458 5448 5437 5426 5414 5401 5388 5377 5368 5361 5355 5351 5348 5348
5517 5518 5519 5519 5520 5520 5520 5520 5520 5520 5520 5520 5520 5519 5518 5517 5516 5514 5512 5510 5507 5504 5500 5496 5491 5485 5478 5471 5463 5454 5445 5434 5423 5410 5397 5385 5374 5365 5358 5352 5348 5346 5346 5348
5508 5509 5510 5511 5512 5512 5512 5512 5513 5513 5513 5513 5513 5512 5511 5510 5509 5507 5505 5503 5499 5496 5491 5486 5480 5474 5467 5458 5450 5441 5431 5420 5409 5395 5382 5371 5363 5355 5349 5345 5343 5343 5345 5348